Weather in Laguna Beach

United States     33°32′14″N   117°46′11″W
temp.,
°C
wind,
m/s
gust,
m/s
humid.,
%
clouds,
%
prec.,
mm/h
press.,
hPa
HPBL,
m
18 september, sat
sat1823:00+18w227810 0.0 1017302
02:00+17w2282100 0.0 1016314
05:00+17wnw338221 0.0 1017372
08:00+17w118271 0.0 1018337
11:00+18wsw327645 0.1 1018398
14:00+18w43756 0.0 1017394
17:00+18w44730 0.0 1016455
20:00+18wnw33760 0.0 1016413
19 september, sun
sun1923:00+18w22780 0.0 1016336
02:00+17w22810 0.0 1015287
05:00+17sw11810 0.0 1014201
08:00+18wsw10790 0.0 1015250
11:00+19sw21720 0.0 1014248
14:00+20sw32690 0.0 1013295
17:00+20wsw32680 0.0 1011294
20:00+19sse22700 0.0 1012126
20 september, mon
mon2023:00+19sse34700 0.0 1012237
02:00+19se44700 0.0 1011228
05:00+19se44720 0.0 1010214
08:00+20se33690 0.0 1012195
11:00+21s33690 0.0 1012283
14:00+21s43730 0.0 1012281
17:00+21sse44788 0.0 1011305
20:00+20se44840 0.0 1013244
21 september, tue
tue2123:00+20sse33850 0.0 1014174
02:00+20sse33870 0.0 1014176
05:00+19sse22870 0.0 1015105
08:00+20sse22840 0.0 1017129
11:00+21ssw22770 0.0 1018199
14:00+22wsw227421 0.0 1017231
17:00+22wsw227420 0.0 1016178
20:00+21wsw117919 0.0 101764
22 september, wed
wed2223:00+21wnw22770 0.0 101879
02:00+21wnw34780 0.0 101779
05:00+21wnw33760 0.0 101757
08:00+22nw44730 0.0 101795
11:00+23w33670 0.0 1017163
14:00+23wnw67660 0.0 1015250
17:00+23wnw68650 0.0 1013239
20:00+21w45710 0.0 1014145